Skagway, AK

7:49 AM AKDT on October 17, 2017 (GMT -0800)
Skagway

Weather History for PAGY - May, 2013

Change the Weather History Date:

Sunday, May 19, 2013

  Actual Average Record
Temperature  
Mean Temperature 42 °F -  
Max Temperature 48 °F 56 °F 82 °F (1968)
Min Temperature 39 °F 41 °F 30 °F (1970)
Degree Days  
Heating Degree Days 22    
Moisture  
Dew Point 30 °F    
Average Humidity 60    
Maximum Humidity 70    
Minimum Humidity 46    
Precipitation  
Precipitation 0.00 in - - ()
Sea Level Pressure  
Sea Level Pressure 30.36 in    
Wind  
Wind Speed 21 mph (SSW)    
Max Wind Speed 28 mph    
Max Gust Speed 38 mph    
Visibility 10 miles    
Events      
Averages and records for this station are not official NWS values.
T = Trace of Precipitation, MM = Missing Value Source: NWS Daily Summary

Daily Weather History Graph

Daily Weather History Graph

Search for Another Location

Airport or City:

Trip Planner

Search our weather history database for the weather conditions in past years. The results will help you decide how hot, cold, wet, or windy it might be!

Date:

Astronomy

May. 19, 2013 Rise Set
Actual Time 4:17 AM AKDT 9:39 PM AKDT
Civil Twilight 3:13 AM AKDT 10:44 PM AKDT
Nautical Twilight 1:30 AM AKDT 12:25 AM AKDT
Astronomical Twilight Sun does not rise Sun does not rise
Moon 2:26 PM AKDT (5/19) 2:17 AM AKDT (5/19)
Length of Visible Light 19h 31m
Length of Day
17h 21m
Waxing Gibbous, 66% of the Moon is Illuminated
May 19
Waxing Gibbous
May 24
Full
May 31
Last Quarter
Jun 8
New
Jun 16
First Quarter

Hourly Weather History & Observations

Time (AKDT) Temp. Windchill Dew Point Humidity Pressure Visibility Wind Dir Wind Speed Gust Speed Precip Events Conditions
12:53 AM 42.1 °F 31.9 °F 30.9 °F 65% 30.14 in 10.0 mi SSW 26.5 mph 38.0 mph N/A   Scattered Clouds
1:53 AM 42.1 °F 32.3 °F 30.9 °F 65% 30.17 in 10.0 mi SSW 24.2 mph 29.9 mph N/A   Overcast
2:53 AM 41.0 °F 31.6 °F 32.0 °F 70% 30.20 in 10.0 mi SSW 20.7 mph 33.4 mph N/A   Partly Cloudy
3:53 AM 41.0 °F 31.6 °F 28.0 °F 60% 30.22 in 10.0 mi SW 20.7 mph 26.5 mph N/A   Mostly Cloudy
4:53 AM 41.0 °F 31.1 °F 28.9 °F 62% 30.26 in 10.0 mi SSW 23.0 mph - N/A   Overcast
5:53 AM 41.0 °F 31.1 °F 30.9 °F 67% 30.28 in 10.0 mi SSW 23.0 mph 29.9 mph N/A   Mostly Cloudy
6:53 AM 39.9 °F 32.1 °F 30.9 °F 70% 30.32 in 10.0 mi SSW 13.8 mph 26.5 mph N/A   Overcast
7:53 AM 41.0 °F 31.6 °F 32.0 °F 70% 30.33 in 10.0 mi SSW 20.7 mph 29.9 mph N/A   Overcast
8:53 AM 42.1 °F 32.3 °F 33.1 °F 70% 30.35 in 10.0 mi SSW 24.2 mph 29.9 mph N/A   Overcast
9:53 AM 42.1 °F 31.7 °F 32.0 °F 67% 30.36 in 10.0 mi SSW 27.6 mph 35.7 mph N/A   Overcast
10:53 AM 44.1 °F 35.7 °F 32.0 °F 63% 30.38 in 10.0 mi SSW 20.7 mph - N/A   Overcast
11:53 AM 45.0 °F 37.1 °F 32.0 °F 60% 30.39 in 10.0 mi SSW 19.6 mph - N/A   Overcast
12:53 PM 46.0 °F 38.3 °F 30.0 °F 54% 30.39 in 10.0 mi SSW 20.7 mph - N/A   Mostly Cloudy
1:53 PM 46.0 °F 38.3 °F 33.1 °F 61% 30.40 in 10.0 mi SSW 20.7 mph - N/A   Mostly Cloudy
2:53 PM 46.9 °F - 30.9 °F 54% 30.41 in 10.0 mi SSW 21.9 mph - N/A   Clear
3:53 PM 46.9 °F - 28.0 °F 48% 30.42 in 10.0 mi SSW 18.4 mph - N/A   Clear
4:53 PM 46.9 °F - 27.0 °F 46% 30.42 in 10.0 mi SSW 16.1 mph - N/A   Mostly Cloudy
5:53 PM 46.9 °F - 27.0 °F 46% 30.42 in 10.0 mi SSW 13.8 mph - N/A   Partly Cloudy
6:53 PM 46.0 °F 39.6 °F 28.0 °F 50% 30.42 in 10.0 mi SSW 15.0 mph - N/A   Clear
7:53 PM 45.0 °F 39.7 °F 28.0 °F 52% 30.44 in 10.0 mi SSW 10.4 mph - N/A   Clear
8:53 PM 44.1 °F 38.6 °F 28.0 °F 53% 30.45 in 10.0 mi SSW 10.4 mph - N/A   Overcast
9:53 PM 43.0 °F 38.8 °F 28.9 °F 58% 30.47 in 10.0 mi SSW 6.9 mph - N/A   Clear
10:53 PM 43.0 °F 37.7 °F 30.9 °F 62% 30.49 in 10.0 mi South 9.2 mph - N/A   Scattered Clouds
11:53 PM 41.0 °F 38.0 °F 30.9 °F 67% 30.50 in 10.0 mi Variable 4.6 mph - N/A   Partly Cloudy